www.pogodaiklimat.ru

Погода и климат >> Архив погоды >> Словакия >> Моховце


ПОГОДА в Моховце

  • Прогноз погоды в Моховце
  • Монитор погоды в Моховце

АРХИВ ПОГОДЫ в Моховце

Время (UTC), дата Ветер
(напр.,м/с)
 
Видим.   Явления Облачность Т
(С)
Тd
(С)
f
(%)
Тe
(С)
Тes
(С)
Комфортность P
(гПа)
Po
(гПа)
Тmin
(С)
Tmax
(С)
R
(мм)
R24
(мм)
S
(см)
07 12.06 ЮВ 6 н/о н/о +24.7 +18.4 68 +29 +29 душно 1014.1 984.3
08 12.06 ЮВ 6 н/о н/о +26.2 +19.4 66 +32 +32 очень
душно
1013.9 984.3
09 12.06 ЮВ 7 н/о н/о +27.1 +19.5 63 +33 +33 очень
душно
1013.6 984.1
10 12.06 ЮВ 6 н/о н/о +27.6 +18.9 59 +33 +33 очень
душно
1013.4 984.0
11 12.06 Ю 6 н/о н/о +28.9 +19.8 58 +35 +35 очень
душно
1013.0 983.7
12 12.06 ЮВ 7 н/о н/о +29.4 +19.7 56 +35 +35 очень
душно
1012.5 983.3
13 12.06 Ю 5 н/о н/о +29.6 +19.6 55 +36 +36 очень
душно
1012.2 983.0
14 12.06 ЮВ 5 н/о н/о +29.7 +19.4 54 +35 +35 очень
душно
1012.0 982.8
15 12.06 Ю 5 н/о н/о +29.4 +20.3 58 +36 +36 очень
душно
1011.6 982.4
16 12.06 Ю 4 н/о н/о +28.3 +20.3 62 +35 +35 очень
душно
1011.4 982.1
17 12.06 В 4 н/о н/о +27.7 +19.5 61 +33 +33 очень
душно
1011.4 982.0
18 12.06 В 5 н/о н/о +25.4 +19.1 68 +30 +30 душно 1011.5 981.9 +30.2
19 12.06 В 5 н/о н/о +23.5 +19.0 76 +28 +28 душно 1012.1 982.3
20 12.06 В 6 н/о н/о +23.1 +18.0 73 +29 +29 очень
душно
1012.2 982.3
21 12.06 ЮВ 5 н/о н/о +21.7 +17.7 78 +26 +26 душно 1013.0 983.0
22 12.06 ЮВ 5 н/о н/о +21.8 +17.0 74 +26 +26 душно 1013.4 983.4
23 12.06 В 5 н/о н/о +21.1 +16.7 76 +25 +25 комфорт 1013.4 983.3
00 13.06 В 4 н/о н/о +20.9 +16.3 75 +25 +25 комфорт 1013.3 983.2
01 13.06 н/о
02 13.06 н/о
03 13.06 н/о н/о +18.4 +16.2 87 1013.7 983.3
04 13.06 В 3 н/о н/о +18.9 +16.7 87 +20 +20 1013.4 983.1
05 13.06 В 4 н/о н/о +22.0 +17.6 76 +27 +27 душно 1013.2 983.2
06 13.06 В 7 н/о н/о +24.8 +18.0 66 +29 +29 душно 1013.2 983.5 +18.4
07 13.06 В 7 н/о н/о +26.1 +18.8 64 +31 +31 очень
душно
1013.1 983.5
08 13.06 В 7 н/о н/о +27.5 +19.6 62 +33 +33 очень
душно
1013.0 983.6
09 13.06 В 7 н/о н/о +28.5 +18.3 54 +33 +33 очень
душно
1013.0 983.6
10 13.06 ЮВ 6 н/о н/о +29.7 +19.4 54 +35 +35 очень
душно
1012.9 983.7
11 13.06 ЮВ 5 н/о н/о +30.3 +18.8 50 +35 +35 очень
душно
1012.8 983.6
12 13.06 Ю 6 н/о н/о +30.7 +19.4 51 +36 +36 очень
душно
1012.5 983.4
13 13.06 ЮВ 6 н/о н/о +30.9 +19.6 51 +37 +37 очень
душно
1012.3 983.2
14 13.06 ЮВ 6 н/о н/о +30.9 +19.9 52 +37 +37 очень
душно
1011.9 982.8
15 13.06 В 7 н/о н/о +30.1 +19.5 53 +36 +36 очень
душно
1011.8 982.6
16 13.06 В 7 н/о н/о +29.1 +19.4 56 +35 +35 очень
душно
1011.5 982.3
17 13.06 В 6 н/о н/о +28.0 +19.5 60 +34 +34 очень
душно
1011.4 982.1
18 13.06 ЮВ 5 н/о н/о +26.1 +19.5 67 +32 +32 очень
душно
1011.3 981.8 +31.2
19 13.06 В 4 н/о н/о +25.3 +19.4 70 +31 +31 очень
душно
1012.6 983.0
20 13.06 В 5 н/о н/о +24.3 +18.9 72 +29 +29 душно 1013.0 983.2
21 13.06 В 4 н/о н/о +23.9 +18.1 70 +28 +28 душно 1013.8 984.0
22 13.06 ЮВ 3 н/о н/о +23.6 +18.0 71 +28 +28 душно 1014.2 984.3
23 13.06 В 3 н/о н/о +22.7 +17.8 74 +28 +28 душно 1014.1 984.1
00 14.06 ЮВ 3 н/о н/о +21.6 +17.8 79 +26 +26 душно 1014.1 984.0
01 14.06 н/о
02 14.06 н/о
03 14.06 н/о н/о +19.9 +17.1 84 1015.3 985.0
04 14.06 н/о н/о +19.6 +17.4 87 1015.7 985.4
05 14.06 н/о н/о +22.8 +18.8 78 1015.7 985.7
06 14.06 нст 1 н/о н/о +25.0 +18.7 68 +30 +30 душно 1016.1 986.3 +19.3
07 14.06 В 2 н/о н/о +26.7 +18.6 61 +32 +32 очень
душно
1016.2 986.6
08 14.06 н/о н/о +28.0 +19.3 59 1016.6 987.1
09 14.06 н/о н/о +29.2 +18.4 52 1016.8 987.4
10 14.06 Ю 2 н/о н/о +30.3 +15.6 41 +33 +33 душно 1017.1 987.8
11 14.06 Ю 2 н/о н/о +31.2 +16.0 40 +34 +34 душно 1017.0 987.7
12 14.06 н/о н/о +31.5 +17.8 44 1016.6 987.4
13 14.06 В 3 н/о н/о +31.3 +16.1 40 +34 +34 душно 1016.3 987.1
14 14.06 н/о н/о +31.8 +16.2 39 1016.3 987.1
15 14.06 н/о н/о +31.7 +17.6 43 1016.0 986.8
16 14.06 н/о н/о +31.3 +18.7 47 1015.7 986.5
17 14.06 н/о н/о +29.9 +17.4 47 1015.6 986.3
18 14.06 штиль 0 н/о н/о +27.2 +18.0 57 +32 +32 очень
душно
1015.7 986.1 +32.0
19 14.06 В 1 н/о н/о +24.6 +18.1 67 +29 +29 душно 1016.3 986.5
20 14.06 В 1 н/о н/о +23.5 +18.0 71 +28 +28 душно 1017.0 987.0
21 14.06 н/о н/о +23.1 +17.3 70 1016.7 986.7
22 14.06 В 2 н/о н/о +21.9 +17.1 74 +26 +26 душно 1016.6 986.5
23 14.06 н/о н/о +20.5 +16.7 79 1016.3 986.0
00 15.06 В 1 н/о н/о +19.7 +16.7 83 +23 +23 комфорт 1016.0 985.7
01 15.06 н/о
02 15.06 н/о
03 15.06 н/о н/о +18.3 +16.3 88 1016.0 985.5
04 15.06 н/о н/о +18.8 +17.0 89 1015.9 985.5
05 15.06 В 2 н/о н/о +21.6 +18.8 84 +26 +26 душно 1015.4 985.3
06 15.06 В 4 н/о н/о +25.0 +20.0 74 +31 +31 очень
душно
1014.9 985.2 +18.2
07 15.06 В 6 н/о н/о +26.8 +21.1 71 +34 +34 очень
душно
1014.4 984.9
08 15.06 ЮВ 6 н/о н/о +28.4 +21.2 65 +36 +36 очень
душно
1014.4 985.0
09 15.06 ЮВ 5 н/о н/о +29.4 +21.1 61 +37 +37 очень
душно
1014.2 984.9
10 15.06 ЮВ 5 н/о н/о +31.0 +22.6 61 +41 +41 опасность
перегрева
1014.0 984.9
11 15.06 Ю 7 н/о н/о +31.8 +21.4 54 +40 +40 очень
душно
1013.4 984.4
12 15.06 Ю 5 н/о н/о +32.0 +19.6 48 +38 +38 очень
душно
1013.2 984.2
13 15.06 ЮЗ 5 н/о н/о +30.3 +17.8 47 +35 +35 очень
душно
1013.0 983.8
14 15.06 Ю 5 н/о н/о +31.6 +17.5 43 +36 +36 очень
душно
1012.4 983.3
15 15.06 Ю 4 н/о н/о +30.9 +20.5 54 +38 +38 очень
душно
1012.1 983.0
16 15.06 Ю 4 н/о н/о +29.5 +19.8 56 +36 +36 очень
душно
1011.9 982.7
17 15.06 ЮВ 4 н/о н/о +28.3 +19.8 60 +34 +34 очень
душно
1011.4 982.1
18 15.06 В 3 н/о н/о +26.1 +18.8 64 +31 +31 очень
душно
1011.3 981.8 +32.2
19 15.06 В 4 н/о н/о +24.3 +18.0 68 +29 +29 душно 1011.6 981.9
20 15.06 н/о н/о +22.6 +16.9 70 1012.4 982.5
21 15.06 В 2 н/о н/о +21.7 +16.9 74 +26 +26 душно 1012.8 982.8
22 15.06 н/о н/о +21.0 +16.4 75 1013.0 982.9
23 15.06 н/о н/о +20.4 +16.4 78 1013.1 982.9
00 16.06 нст 2 н/о н/о +19.6 +16.3 81 +22 +22 комфорт 1012.8 982.5
01 16.06 н/о
02 16.06 н/о
03 16.06 В 3 н/о н/о +19.4 +15.9 80 +21 +21 комфорт 1012.3 982.0
04 16.06 н/о н/о +19.4 +16.1 81 1012.7 982.4
05 16.06 В 3 н/о н/о +21.7 +16.7 73 +26 +26 душно 1012.7 982.7
06 16.06 нст 2 н/о н/о +23.9 +18.1 70 +28 +28 душно 1012.8 983.0 +18.6
07 16.06 н/о н/о +27.2 +18.2 58 1012.8 983.3
08 16.06 н/о н/о +28.5 +18.3 54 1013.3 983.9
09 16.06 З 3 н/о н/о +28.7 +19.6 58 +35 +35 очень
душно
1013.6 984.3
10 16.06 СЗ 3 н/о н/о +27.3 +19.4 62 +33 +33 очень
душно
1013.7 984.2
11 16.06 СЗ 3 н/о н/о +26.8 +19.4 64 +32 +32 очень
душно
1014.0 984.5
12 16.06 СЗ 4 н/о н/о +27.0 +19.9 65 +33 +33 очень
душно
1013.7 984.2
13 16.06 СЗ 3 н/о н/о +28.6 +20.6 62 +35 +35 очень
душно
1013.2 983.9
14 16.06 СЗ 3 н/о н/о +28.6 +19.3 57 +34 +34 очень
душно
1012.7 983.4
15 16.06 СЗ 5 н/о н/о +26.6 +18.7 62 +32 +32 очень
душно
1012.7 983.2
16 16.06 СЗ 4 н/о н/о +26.1 +17.8 60 +30 +30 душно 1013.8 984.2
17 16.06 СЗ 3 н/о н/о +25.1 +18.1 65 +29 +29 душно 1013.7 984.0
18 16.06 СЗ 3 н/о н/о +24.2 +17.9 68 +28 +28 душно 1013.9 984.1 +29.4
19 16.06 СЗ 3 н/о н/о +23.2 +17.7 71 +29 +29 душно 1014.5 984.6
20 16.06 н/о н/о +22.6 +17.7 74 1015.7 985.7
21 16.06 В 3 н/о н/о +20.3 +15.5 74 +23 +23 комфорт 1016.5 986.2
22 16.06 ЮЗ 4 н/о н/о +19.6 +15.7 78 +22 +22 комфорт 1017.7 987.3
23 16.06 н/о н/о +18.6 +16.9 90 1017.5 987.0
00 17.06 нст 2 н/о н/о +17.6 +16.6 94 +18 +18 1017.9 987.3 0.3
01 17.06 н/о
02 17.06 н/о
03 17.06 В 3 н/о н/о +17.8 +15.4 86 +18 +18 1017.9 987.3
04 17.06 штиль 0 н/о н/о +17.7 +15.7 88 +18 +18 1017.7 987.1
05 17.06 н/о н/о +20.2 +16.2 78 1017.4 987.1
06 17.06 нст 1 н/о н/о +21.6 +17.2 76 +26 +26 душно 1017.8 987.6 +17.2 0.3
07 17.06 н/о н/о +23.5 +17.3 68 1017.7 987.7
08 17.06 н/о н/о +24.9 +16.9 61 1017.7 987.8
09 17.06 В 4 н/о н/о +25.6 +17.0 59 +29 +29 душно 1017.7 987.9
10 17.06 В 4 н/о н/о +26.1 +15.8 53 +29 +29 жарко 1017.7 987.9
11 17.06 н/о н/о +27.1 +15.8 50 1017.4 987.7
12 17.06 нст 3 н/о н/о +19.7 +17.3 86 +22 +22 комфорт 1019.0 988.6 4
13 17.06 Ю 1 н/о н/о +20.3 +19.0 92 +25 +25 комфорт 1018.7 988.4
14 17.06 н/о н/о +22.7 +19.1 80 1018.0 987.9
15 17.06 н/о н/о +24.3 +16.6 62 1017.3 987.4
16 17.06 В 2 н/о н/о +23.8 +17.3 67 +28 +28 душно 1016.7 986.8
17 17.06 н/о н/о +23.6 +17.8 70 1016.8 986.8
18 17.06 нст 1 н/о н/о +21.5 +18.1 81 +26 +26 душно 1017.0 986.8 +27.8 5
19 17.06 СВ 2 н/о н/о +20.6 +14.5 68 +24 +24 комфорт 1017.4 987.1
20 17.06 н/о н/о +19.7 +13.0 65 1017.8 987.4
21 17.06 н/о н/о +18.2 +12.4 69 1018.2 987.6
22 17.06 СВ 2 н/о н/о +18.2 +12.0 67 +19 +19 1018.3 987.7
23 17.06 СВ 2 н/о н/о +17.6 +11.6 68 +18 +18 1018.1 987.4
00 18.06 В 2 н/о н/о +17.0 +11.5 70 +17 +17 1017.9 987.2
01 18.06 н/о
02 18.06 н/о
03 18.06 В 2 н/о н/о +15.7 +11.3 75 +16 +16 1017.8 986.9
04 18.06 В 3 н/о н/о +16.4 +11.4 72 +16 +16 1017.8 987.0
05 18.06 СВ 3 н/о н/о +18.1 +11.9 67 +18 +18 1017.7 987.1
06 18.06 нст 2 н/о н/о +20.0 +12.8 63 +22 +22 комфорт 1017.8 987.4 +15.7
07 18.06 ЮВ 2 н/о н/о +22.5 +13.3 56 +25 +25 комфорт 1017.5 987.4
08 18.06 н/о н/о +24.4 +13.6 51 1017.2 987.3
09 18.06 ЮВ 3 н/о н/о +25.1 +13.4 48 +27 +27 жарко 1017.2 987.3
10 18.06 ЮВ 3 н/о н/о +26.2 +13.4 45 +28 +28 жарко 1016.8 987.0
11 18.06 В 3 н/о н/о +26.2 +14.0 47 +28 +28 жарко 1016.5 986.8
12 18.06 В 3 н/о н/о +26.6 +14.7 48 +29 +29 жарко 1016.0 986.3
13 18.06 Ю 2 н/о н/о +27.7 +15.7 48 +31 +31 душно 1015.3 985.8
14 18.06 Ю 2 н/о н/о +27.8 +15.2 46 +30 +30 жарко 1014.9 985.4
15 18.06 Ю 3 н/о н/о +27.2 +16.5 52 +31 +31 душно 1014.4 984.9
16 18.06 н/о н/о +26.9 +16.2 52 1014.0 984.4
17 18.06 ЮЗ 2 н/о н/о +26.5 +16.2 53 +30 +30 душно 1014.1 984.5
18 18.06 штиль 0 н/о н/о +24.0 +16.0 61 +27 +27 жарко 1014.3 984.4 +28.1
19 18.06 н/о н/о +22.0 +15.6 67 1015.0 984.9
20 18.06 В 1 н/о н/о +20.8 +15.1 70 +25 +25 комфорт 1015.2 985.0
21 18.06 В 1 н/о н/о +20.3 +15.7 75 +24 +24 комфорт 1015.2 984.9
22 18.06 н/о н/о +20.1 +15.5 75 1015.1 984.8
23 18.06 В 2 н/о н/о +19.6 +15.7 78 +22 +22 комфорт 1015.2 984.9
00 19.06 нст 1 н/о н/о +18.3 +15.6 84 +20 +20 1015.2 984.7
01 19.06 н/о
02 19.06 н/о
03 19.06 В 3 н/о н/о +17.7 +15.5 87 +18 +18 1014.5 984.0
04 19.06 В 2 н/о н/о +17.9 +15.7 87 +18 +18 1014.6 984.1
05 19.06 н/о н/о +19.1 +16.7 86 1014.6 984.2
06 19.06 В 4 н/о н/о +22.5 +17.4 73 +27 +27 душно 1014.1 984.1 +17.3
07 19.06 В 5 н/о н/о +24.4 +18.6 70 +29 +29 душно 1013.9 984.1
08 19.06 ЮВ 4 н/о н/о +26.2 +18.4 62 +31 +31 очень
душно
1013.7 984.1

 

Местоположение метеостанции Моховце (Словакия): широта 48.28 долгота 18.45 высота над уровнем моря 262 м.

В архиве по умолчанию представлена погода в Моховце за последнюю неделю. Архивные данные за месяц целиком и за предыдущие месяцы, начиная с января 2011 года, Вы можете получить, выбрав интересующий диапазон дат из раскрывающегося списка и нажав кнопку "Ввод!".


*Определитесь, кто Вы:
робот инопланетянин человек

Внимание! Время в таблицах - всемирное. Для получения местного времени необходимо прибавить поправку, которая равна 1 ч.

Смотрите также архив погоды в соседних городах и на ближайших метеорологических станциях:

Погода в Нитре (Словакия) (24 км)
Погода в Дудинце (Словакия) (33 км)
Погода в Жьяр-над-Гроном (Словакия) (45 км)
Погода в Гурбаново (Словакия) (49 км)
Погода в Прьевидзе (Словакия) (56 км)
Погода в Пьештяни (Словакия) (59 км)
Погода в Тате (Венгрия) (60 км)
Погода в Ясловске Богунице (Словакия) (62 км)
Погода в Слиаче (Словакия) (66 км)
Погода в Тате (Венгрия) (71 км)

Пояснения к столбцам:

Ветер - указаны скорость ветра в м/с - средняя за 10 мин, порывы в срок и между сроками (в фигурных скобках) и направление, откуда дует ветер: С - северный, СВ - северо-восточный, В - восточный, ЮВ - юго-восточный, Ю - южный, ЮЗ - юго-западный, З - западный, СЗ - северо-западный.
Видимость - горизонтальная дальность видимости в метрах или километрах. При видимости от 1 до 10 км при отсутствии осадков обычно наблюдается дымка, при ухудшении видимости до 1 км и менее - туман. В сухую погоду видимость может ухудшаться дымом, пылью или мглою.
Явления - указаны атмосферные явления, наблюдавшиеся в срок или в последний час перед сроком; фигурными скобками обозначены явления, наблюдавшиеся между сроками (за 1-3 часа до срока); квадратными скобками обозначены град или гололедные отложения с указанием их диаметра в мм.
Облачность - указаны через наклонную черту общая и нижняя облачность в баллах и высота нижней границы облаков в метрах; квадратными скобками обозначены формы облаков: Ci - перистые, Cs - перисто-слоистые, Cc - перисто-кучевые, Ac - высококучевые, As - высокослоистые, Sc - слоисто-кучевые, Ns - слоисто-дождевые, Cu - кучевые, Cb - кучево-дождевые. Подробнее классификацию облаков см. в Атласе облаков (PDF).
T - Температура воздуха - температура, измеренная на высоте 2 м над землей.
Td - Температура точки росы - температура, при понижении до которой содержащийся в воздухе водяной пар достигнет насыщения.
f - Относительная влажность воздуха - влажноcть воздуха, измеренная на высоте 2 м над землей.
Te - Эффективная температура - температура, которую ощущает одетый по сезону человек в тени. Характеристика душности погоды. При расчете учитывается влияние влажности воздуха и скорости ветра на теплоощущения человека.
Tes - Эффективная температура на солнце - температура, которую ощущает человек, с поправкой на солнечный нагрев. Характеристика знойности погоды. Зависит от высоты солнца над горизонтом, облачности и скорости ветра. Ночью, в пасмурную погоду, а также при ветре 12 м/с и более поправка равна нулю.
P - Атмосферное давление - приведенное к уровню моря атмосферное давление.
Po - Атмосферное давление - измеренное на уровне метеостанции атмосферное давление.
Tmin - Минимальная температура - минимум температуры воздуха на высоте 2 м над землей.
Tmax - Максимальная температура - максимум температуры воздуха на высоте 2 м над землей.
R - Количество осадков - Количество выпавших осадков за период времени, мм. При наведении курсора мыши на число - период времени, за который выпало указанное количество осадков.
R24 - Количество осадков - Количество выпавших осадков за 24 часа, мм.
S - Снежный покров - Высота снежного покрова, см. При наведении курсора мыши на число - состояние снежного покрова и степень покрытия местности в баллах.